Location: Albany
(35.0000°S, 118.0000°E)
Time: 08:41:53
(UTC-04:00)

Tiangong - Pass Details

Date: 30 September 2021
Orbit: 382 x 385 km, 41.5° (Epoch: 16 October)

Event Time Altitude Azimuth Distance (km) Brightness Sun altitude
Rises 07:47:11 0° 245° (WSW) 2,289 6.6 -20.2°
Reaches altitude 10° 07:49:17 10° 242° (WSW) 1,431 5.1 -20.6°
Enters shadow 07:52:03 59° 216° (SW) 459 1.6 -21.1°
